Location: Hlohovi?ky
(49.8934°N, 13.6739°E)
Time: 19:48:36
(UTC+00:00)

Meteor 2-13 Rocket - Pass Details

Date: 19 May 2025
Orbit: 934 x 958 km, 82.5° (Epoch: 20 June)

Event Time Altitude Azimuth Distance (km) Brightness Sun altitude
Exits shadow 22:19:05 29° 199° (SSW) 1,672 5.3 -19.5°
Maximum altitude 22:22:24 77° 281° (W) 983 4.5 -19.6°
Drops below altitude 10° 22:28:34 10° 8° (N) 2,687 7.9 -19.7°
Sets 22:31:04 0° 10° (N) 3,633 8.8 -19.8°
